Date,TemperatureHighF,TemperatureAvgF,TemperatureLowF,DewpointHighF,DewpointAvgF,DewpointLowF,HumidityHigh,HumidityAvg,HumidityLow,PressureMaxIn,PressureMinIn,WindSpeedMaxMPH,WindSpeedAvgMPH,GustSpeedMaxMPH,PrecipitationSumIn
2013-9-1,88.3,70.5,67.9,78.1,69.1,67.0,99,96,67,29.89,29.79,7,0,7,0.87
2013-9-2,88.5,75.6,67.8,77.7,71.7,67.2,99,89,63,29.89,29.78,6,0,6,0.01
2013-9-3,91.3,77.1,68.2,74.6,70.1,65.0,98,81,48,29.95,29.79,7,0,7,0.00
2013-9-4,90.0,72.3,60.4,68.8,64.3,59.5,98,79,41,30.09,29.95,5,0,5,0.00
2013-9-5,91.0,72.7,60.7,69.8,63.3,56.1,98,77,35,30.11,30.02,6,0,6,0.00
2013-9-6,84.7,69.8,60.5,66.1,61.7,56.9,98,78,48,30.20,30.08,6,0,6,0.00
2013-9-7,82.0,68.9,58.0,70.2,63.5,57.0,98,84,59,30.14,29.97,8,0,8,0.00
2013-9-8,89.1,80.5,62.1,75.0,70.0,61.2,98,72,49,29.98,29.90,4,0,4,0.00
2013-9-9,89.5,75.0,65.3,74.9,69.5,64.4,98,85,57,30.13,29.98,7,0,7,0.01
2013-9-10,92.3,76.4,65.8,74.9,70.2,64.8,99,83,51,30.22,30.11,5,0,5,0.00
2013-9-11,92.8,76.4,66.3,76.0,71.1,65.4,99,85,54,30.18,30.05,7,0,7,0.00
2013-9-12,91.0,74.6,68.7,76.3,70.3,67.8,98,88,55,30.05,29.81,7,0,7,0.00
2013-9-13,84.4,72.3,59.2,69.1,61.3,53.3,97,72,36,29.92,29.76,10,1,10,0.00
2013-9-14,78.9,63.2,51.9,59.8,54.5,50.5,96,76,44,30.13,29.92,7,0,7,0.00
2013-9-15,82.0,64.7,51.4,65.9,58.1,50.3,97,82,49,30.24,30.11,6,0,6,0.00
2013-9-16,85.8,70.1,58.8,68.6,62.9,57.8,98,80,47,30.19,30.06,8,0,8,0.00
2013-9-17,75.7,64.5,55.2,59.5,56.7,53.2,94,77,52,30.32,30.19,7,0,8,0.00
2013-9-18,73.7,67.0,53.4,62.6,56.5,51.7,96,70,53,30.33,30.17,6,0,6,0.00
2013-9-19,77.8,66.6,59.3,66.3,61.5,57.3,96,85,63,30.19,30.07,7,0,7,0.00
2013-9-20,88.3,70.6,63.2,72.1,66.6,62.1,98,89,54,30.08,29.92,5,0,5,0.51
2013-9-21,74.0,68.4,64.5,70.4,67.1,63.9,98,96,86,29.94,29.69,9,0,9,1.27
2013-9-22,77.8,68.0,55.9,64.3,58.9,55.3,99,75,51,29.91,29.72,8,1,8,0.01
2013-9-23,72.8,62.1,53.3,60.7,54.9,51.8,97,79,55,30.08,29.91,6,0,6,0.00
2013-9-24,81.8,71.6,54.9,64.7,60.0,53.5,97,69,46,30.09,29.93,6,0,6,0.00
2013-9-25,67.1,60.8,54.8,64.7,59.2,53.7,98,95,87,29.95,29.88,2,0,2,0.09
2013-9-26,76.0,63.0,55.0,62.8,57.9,53.3,99,85,48,30.06,29.89,7,0,7,0.00
2013-9-27,76.5,61.2,49.5,60.5,54.9,48.6,99,82,50,30.20,30.05,9,0,9,0.00
2013-9-28,72.5,59.2,50.0,58.7,53.8,49.0,98,84,55,30.28,30.18,8,0,8,0.00
2013-9-29,72.8,58.3,51.0,60.7,54.9,49.6,98,90,59,30.20,30.04,5,0,5,0.00
2013-9-30,80.7,62.5,49.6,62.2,55.4,48.6,98,81,44,30.11,29.99,5,0,5,0.00